Temperature
28 25 24 24 25 26 26 26 26 27 28 26 25 24 24 24 24 24 23 23 23 23 22 22 22 22 22 21 21 21 20 20 20 20 20 19 19 19 19 19 19 19 19 19
25 25 27 27 27 27 27 26 26 26 27 26 25 25 25 24 24 24 24 23 23 23 22 22 22 22 22 21 21 21 20 20 20 20 20 19 19 19 19 19 19 19 19 19
26 27 28 28 28 27 27 26 26 26 26 26 25 24 24 24 25 24 24 24 23 23 22 22 22 22 22 21 21 21 21 20 20 20 20 19 19 19 19 19 18 18 18 19
27 28 29 28 28 28 26 28 28 27 25 23 24 22 23 23 23 24 24 23 23 23 23 23 22 22 22 22 21 21 21 20 20 20 20 19 19 19 19 18 18 18 18 18
27 28 28 28 29 29 27 28 28 27 25 23 24 22 22 23 23 23 23 24 23 23 23 23 22 22 22 22 21 21 21 20 20 20 19 19 19 19 19 18 18 18 18 18
28 29 29 29 30 29 28 27 25 23 22 23 24 23 22 22 23 23 23 24 23 23 23 23 22 22 22 21 21 21 21 20 20 20 19 19 19 19 18 18 18 18 18 18
27 29 29 30 28 28 26 24 22 23 22 22 23 23 22 24 24 24 24 24 23 23 23 23 22 22 22 21 21 21 21 20 20 20 19 19 19 19 18 18 18 18 18 18
26 26 28 29 28 27 26 24 23 23 22 22 23 23 23 25 25 25 25 24 23 23 23 23 22 22 22 21 21 21 21 20 20 20 19 19 19 18 18 18 18 18 18 17
25 26 29 30 30 28 27 25 23 22 22 22 22 23 24 24 24 24 24 24 23 23 23 23 22 22 22 21 21 21 21 20 20 20 19 19 19 18 18 18 18 18 18 17
26 26 28 29 29 28 27 25 22 22 22 22 23 23 22 23 23 23 23 23 23 23 23 23 22 22 22 22 21 21 20 20 20 20 19 19 19 18 18 18 18 18 17 17
26 25 26 27 27 27 27 26 23 21 21 21 22 22 24 23 23 22 23 24 24 23 23 23 23 22 22 21 21 21 20 20 20 20 19 19 19 18 18 18 18 17 17 17
25 23 24 25 26 27 27 25 23 22 22 20 21 22 24 23 23 23 23 23 24 23 23 23 23 22 22 21 21 21 20 20 20 19 19 19 19 18 18 18 17 17 17 17
25 22 23 24 24 25 26 26 24 21 20 20 21 22 23 23 23 23 23 23 23 23 23 22 22 22 22 21 21 21 20 20 19 19 19 19 18 18 18 18 17 17 17 17
25 22 22 23 23 25 25 26 25 23 21 21 22 22 23 22 22 22 23 23 23 23 22 22 22 22 21 21 21 20 20 20 19 19 18 18 18 18 18 17 17 17 17 16
23 23 24 24 25 26 26 26 26 25 23 22 22 22 22 22 22 23 23 23 22 22 22 22 21 21 21 21 21 20 20 19 19 19 18 18 18 17 17 17 17 16 16 16
21 23 23 24 25 25 25 26 26 25 25 24 23 23 22 23 23 22 22 22 22 21 21 21 21 21 21 21 20 20 19 19 19 18 18 18 18 17 17 17 16 16 16 16
21 21 21 22 24 24 24 24 25 24 24 23 23 22 22 21 21 22 22 22 22 21 21 21 21 21 21 20 20 20 19 19 19 18 18 18 17 17 17 17 16 16 16 16
21 20 19 20 22 23 23 24 25 24 24 23 22 22 22 22 22 22 23 22 22 21 21 21 21 20 20 20 20 19 19 19 18 18 18 17 17 17 17 16 16 16 16 16
20 20 19 19 21 22 23 24 24 24 22 22 22 22 22 22 21 21 22 22 22 21 21 20 20 20 20 19 19 19 19 18 18 18 17 17 17 17 16 16 16 16 16 16
19 19 19 19 21 21 22 24 25 23 21 22 22 21 21 21 18 19 21 21 21 21 20 20 20 20 19 19 19 18 18 18 18 17 17 17 16 16 16 16 16 16 16 16
20 19 19 19 20 21 22 24 24 22 21 22 22 22 22 20 20 21 21 21 21 20 20 20 19 19 19 18 18 18 18 18 17 17 17 16 16 16 16 16 16 16 15 15
18 18 18 18 19 20 22 22 21 20 22 22 22 22 21 21 21 20 20 20 20 20 19 19 19 18 18 18 18 18 17 17 17 17 16 16 16 16 16 16 16 15 15 15
18 18 17 17 18 20 22 22 23 23 22 22 22 21 21 20 20 20 19 19 19 19 19 19 18 18 18 18 17 17 17 17 16 16 16 16 16 16 16 15 15 15 15 14
18 18 17 17 19 20 21 22 22 23 22 22 22 21 21 20 19 19 19 19 19 19 19 18 18 18 17 17 17 17 17 16 16 16 16 16 15 15 15 15 15 14 14 14
18 18 17 17 18 19 21 21 21 21 22 21 21 21 20 20 19 19 19 19 18 18 18 18 17 17 17 17 16 16 16 16 16 16 15 15 15 15 15 15 14 14 14 14
17 17 17 17 18 18 19 20 21 20 20 20 20 19 19 19 19 19 18 18 18 18 17 17 17 16 16 16 16 16 15 15 15 15 15 15 15 15 14 14 14 14 14 14
Wind_Speed
1 3 3 7 8 6 4 3 3 3 3 5 5 6 9 10 10 10 9 9 9 9 8 8 8 8 7 5 5 3 3 2 2 1 1 1 0 0 0 1 1 1 1 1
3 4 9 6 4 3 3 2 1 2 1 3 5 5 8 10 12 12 12 11 10 9 7 7 7 7 6 6 5 4 3 2 2 1 1 1 1 1 1 1 1 1 1 1
6 7 5 4 4 3 2 5 4 3 2 4 6 1 3 5 6 8 9 9 10 12 11 9 8 7 6 6 5 4 3 3 2 1 1 2 2 2 2 2 1 1 0 0
5 6 5 6 7 6 4 6 6 6 3 1 3 1 5 5 6 8 9 9 9 9 10 10 9 8 8 7 6 4 4 3 2 2 3 3 2 1 1 1 1 1 1 0
6 5 5 6 9 6 6 6 4 4 3 1 1 2 6 3 6 9 10 11 10 10 11 11 10 9 8 7 6 5 4 3 3 3 3 3 2 1 0 1 2 1 2 1
8 6 5 5 4 4 4 4 6 5 4 1 4 3 5 5 9 8 9 10 10 10 9 9 9 8 7 6 6 5 5 3 3 3 3 3 2 1 2 2 2 1 2 2
6 5 4 2 2 1 5 5 3 5 4 4 2 2 7 7 8 9 11 11 10 9 9 9 9 8 8 7 7 6 6 4 3 3 3 2 2 1 1 1 0 1 1 1
2 5 4 3 5 5 4 8 7 4 3 4 3 2 6 4 4 6 9 10 9 9 9 10 10 10 9 8 7 6 6 5 4 4 3 2 2 1 1 0 0 0 1 1
5 6 5 4 4 7 4 3 8 6 2 0 3 3 4 3 4 5 7 8 9 10 10 9 9 10 9 8 7 7 7 6 5 4 3 2 2 1 1 0 0 0 1 1
6 3 5 3 3 2 6 6 5 5 4 1 3 3 3 3 3 5 6 7 8 8 8 8 8 8 8 8 7 7 7 6 6 5 4 3 2 1 1 1 0 1 1 1
5 3 5 3 1 2 1 2 4 4 5 6 3 5 5 7 7 7 8 8 8 8 8 7 7 7 7 7 7 6 6 6 5 5 4 3 2 2 1 1 1 1 1 1
2 5 2 5 5 4 4 5 6 4 2 4 4 6 4 7 7 8 8 7 7 7 7 7 7 7 7 7 6 7 6 6 6 5 4 3 2 2 1 2 1 1 1 1
4 6 2 6 7 5 2 1 4 6 4 3 4 5 1 5 6 6 7 7 7 7 6 6 6 6 7 7 6 6 6 5 5 4 4 3 2 2 2 2 2 1 1 1
4 4 6 7 7 4 2 2 1 5 3 3 6 5 3 4 6 7 7 6 6 7 6 6 5 5 5 6 6 6 6 6 5 5 4 4 3 3 3 3 2 2 1 1
5 3 2 4 4 1 1 1 1 1 5 6 7 7 8 8 9 9 8 7 8 7 6 5 5 4 4 4 4 5 5 5 5 4 4 4 3 3 2 2 2 2 2 1
3 4 2 3 3 2 2 2 1 1 2 4 5 4 5 5 6 6 7 8 8 8 7 5 5 4 4 4 5 4 4 4 4 4 3 3 3 2 2 2 2 2 2 2
1 4 3 2 4 4 4 4 2 1 2 5 5 5 4 6 7 7 7 8 8 8 6 5 4 4 3 3 4 5 4 4 4 4 3 3 3 3 3 3 2 3 3 3
5 4 4 1 3 2 7 4 3 4 2 2 3 3 6 7 6 5 6 8 8 7 6 5 3 4 3 3 3 3 4 4 4 3 3 3 3 3 3 2 3 4 3 3
7 7 4 3 3 4 6 4 2 5 2 2 4 5 6 7 8 4 2 6 8 8 7 6 5 5 4 4 3 4 3 3 2 2 2 3 4 3 3 3 4 4 3 3
4 6 5 4 3 5 6 6 2 7 1 1 5 7 7 7 4 3 2 6 7 7 7 7 7 6 5 3 4 4 3 2 0 2 2 2 2 3 4 4 4 3 3 3
4 4 3 3 3 5 5 5 2 4 6 3 4 6 6 4 6 6 6 6 7 7 7 7 6 5 3 3 4 4 2 0 2 1 1 2 2 3 3 3 3 2 2 2
3 2 2 3 3 5 5 3 3 5 4 4 4 5 6 5 6 6 6 6 7 7 6 6 6 4 2 3 4 3 1 2 1 1 2 2 3 3 2 2 2 2 2 2
2 5 4 5 5 5 2 2 3 5 6 5 5 6 8 8 6 5 5 5 5 5 5 5 5 4 2 2 4 3 1 1 1 1 2 3 3 2 2 2 2 1 1 2
3 1 3 2 2 2 2 4 5 3 4 5 7 7 8 7 6 6 5 5 4 4 4 4 4 4 2 2 2 2 1 0 1 2 2 2 2 3 3 2 2 2 2 2
4 1 2 1 2 4 4 4 4 5 4 6 6 6 7 8 6 6 6 5 4 3 3 4 4 4 3 2 1 1 1 0 0 1 3 2 2 2 3 3 2 3 3 4
3 3 4 5 5 3 3 2 2 3 2 5 7 5 4 6 6 6 5 4 4 3 3 3 3 3 2 1 1 1 1 1 1 1 3 2 2 2 2 3 3 4 3 4
Wind_Direction
292 83 225 227 211 214 196 197 233 245 163 133 144 155 170 173 167 168 169 169 169 171 170 159 155 151 144 139 131 127 122 121 104 81 83 89 279 252 267 232 225 216 218 181
15 253 232 223 226 203 183 169 247 321 76 108 139 155 173 176 180 178 175 174 171 168 165 165 158 152 150 149 145 133 134 134 133 146 169 173 181 205 192 278 283 237 226 212
208 238 229 218 232 214 230 188 193 184 32 62 100 11 218 194 182 180 183 177 174 172 174 176 171 162 152 154 158 153 147 134 133 129 91 66 55 35 29 360 345 308 259 126
239 234 226 231 231 196 232 209 182 160 121 236 127 213 269 203 197 193 190 186 187 181 176 176 174 165 165 164 157 147 143 133 127 119 106 104 104 104 257 263 294 321 312 357
244 230 221 233 233 196 213 201 167 159 142 93 57 135 272 196 208 211 200 192 187 183 182 177 172 172 170 164 159 157 143 136 128 117 122 111 98 133 335 19 28 6 342 332
247 247 220 218 213 166 148 76 42 43 70 359 238 169 253 220 208 202 198 191 182 178 175 169 164 157 159 163 161 158 147 146 142 126 119 119 114 76 56 37 33 4 342 342
297 285 255 194 119 51 104 93 32 0 12 265 262 166 241 235 202 186 178 178 176 170 168 164 159 159 164 168 166 165 157 154 149 135 131 133 136 114 104 81 45 359 347 334
232 285 254 208 180 179 163 138 156 190 220 272 335 246 261 249 177 154 158 165 166 168 172 173 169 168 169 169 169 166 162 160 154 146 150 135 128 127 118 109 102 331 281 290
186 250 275 230 189 149 145 175 167 143 142 46 300 299 323 62 104 132 147 155 164 172 177 179 174 169 168 168 173 173 166 164 163 161 156 138 132 123 107 87 80 331 304 318
167 239 284 288 48 39 146 155 98 118 148 217 283 263 230 204 164 151 149 158 169 170 173 175 173 170 170 171 173 173 167 170 172 167 166 153 161 172 171 125 7 321 314 331
149 158 306 358 144 215 58 104 108 123 149 153 206 263 221 193 172 162 166 164 154 160 173 176 176 175 170 171 170 169 170 168 165 168 167 160 166 172 161 187 241 272 297 312
140 133 249 271 260 186 164 166 139 146 221 165 166 258 238 172 164 156 154 158 150 153 162 169 169 166 166 170 175 178 178 176 178 175 166 167 170 166 187 240 249 254 288 290
119 110 70 337 339 358 42 121 141 135 127 156 168 250 233 146 149 146 144 152 150 148 147 150 155 167 171 176 179 180 177 175 171 167 165 172 188 189 211 246 256 260 268 284
117 110 155 195 224 240 299 316 109 115 140 196 208 210 220 185 159 153 145 148 139 143 144 142 151 163 172 179 178 175 175 170 163 162 167 188 208 212 218 234 247 249 247 243
98 128 176 218 234 213 199 253 334 180 191 183 208 193 207 198 176 166 154 145 133 131 134 142 147 153 158 161 173 175 173 171 164 160 169 193 204 209 216 233 252 258 256 260
73 123 64 336 323 15 352 301 253 238 197 166 165 218 224 175 144 141 148 146 143 142 144 147 145 145 153 161 167 163 162 162 152 159 182 189 188 197 220 235 243 256 265 271
62 111 94 281 305 13 318 265 220 199 165 161 183 213 155 132 145 156 158 150 148 148 145 145 149 151 148 144 149 148 151 150 148 161 182 185 190 201 221 234 240 247 255 264
150 128 136 152 41 234 252 257 158 122 78 106 134 144 146 152 148 134 137 140 145 142 141 141 135 117 108 110 112 133 132 136 152 173 191 198 197 216 229 233 244 250 252 257
158 145 131 132 173 256 292 289 168 129 56 51 118 126 124 110 82 52 102 135 142 141 138 135 126 116 103 103 118 117 116 119 129 183 218 224 212 215 227 236 246 246 251 261
78 109 124 134 156 218 248 278 182 108 71 314 108 128 136 116 116 220 175 127 127 124 124 123 119 115 117 128 121 106 100 92 115 252 253 250 231 221 230 240 248 252 253 258
30 48 124 159 192 246 267 293 80 131 213 221 131 143 140 151 180 175 145 130 130 128 125 124 122 120 128 128 114 108 98 151 253 275 306 297 276 253 241 245 257 268 268 282
159 146 174 147 170 248 297 56 129 194 187 139 123 124 120 120 117 119 122 126 131 129 126 125 122 123 124 121 119 117 155 261 292 347 347 319 300 285 288 256 263 277 283 290
156 183 178 172 200 238 294 139 169 138 122 121 130 133 125 120 127 128 122 120 124 131 134 133 135 134 131 135 130 134 233 328 26 11 334 317 315 304 298 268 265 278 280 279
319 68 103 78 287 306 27 51 39 75 126 129 133 136 131 130 137 138 134 128 125 134 139 138 136 145 162 163 140 161 196 68 40 355 326 329 332 322 320 293 252 238 243 254
264 44 89 110 293 1 9 39 55 50 81 110 120 128 139 140 145 146 142 144 144 141 138 136 144 161 184 182 185 216 246 100 62 330 311 306 305 302 306 297 265 248 238 225
256 181 164 214 221 186 265 283 92 87 105 128 123 118 132 143 150 143 146 154 149 145 138 136 140 151 177 179 195 251 238 162 145 313 312 309 304 300 300 303 313 320 309 295
Height
1508 1514 1520 1517 1514 1514 1516 1521 1523 1516 1509 1513 1519 1521 1521 1521 1522 1523 1524 1525 1526 1527 1529 1529 1530 1531 1531 1532 1532 1532 1532 1532 1531 1531 1531 1530 1530 1530 1529 1529 1529 1528 1528 1527
1513 1517 1507 1506 1507 1510 1515 1522 1522 1516 1510 1514 1520 1521 1519 1519 1519 1520 1521 1523 1524 1526 1528 1529 1530 1530 1531 1531 1532 1532 1532 1532 1532 1531 1531 1531 1530 1530 1530 1529 1529 1528 1528 1527
1515 1509 1502 1504 1508 1512 1515 1519 1520 1520 1515 1515 1522 1529 1523 1519 1520 1521 1521 1521 1523 1524 1526 1528 1529 1529 1530 1531 1531 1531 1531 1532 1532 1532 1531 1531 1530 1530 1530 1529 1528 1528 1527 1526
1507 1501 1501 1504 1506 1508 1517 1507 1508 1513 1525 1533 1528 1547 1530 1521 1520 1519 1520 1521 1522 1524 1525 1526 1527 1528 1529 1530 1531 1531 1531 1531 1532 1531 1531 1530 1530 1529 1529 1529 1528 1528 1527 1526
1506 1499 1501 1504 1500 1501 1507 1501 1505 1510 1521 1531 1530 1543 1535 1521 1522 1518 1517 1518 1519 1521 1523 1524 1525 1527 1528 1529 1530 1531 1531 1531 1531 1531 1531 1530 1529 1529 1529 1528 1528 1527 1526 1526
1497 1493 1494 1495 1493 1495 1499 1505 1512 1520 1530 1546 1534 1541 1539 1524 1517 1514 1514 1516 1517 1519 1521 1523 1525 1526 1528 1529 1530 1530 1530 1530 1531 1530 1530 1530 1529 1529 1528 1527 1527 1526 1525 1525
1503 1495 1491 1490 1497 1499 1502 1522 1545 1548 1555 1551 1530 1536 1532 1512 1507 1507 1510 1513 1516 1517 1520 1521 1523 1525 1526 1527 1528 1529 1529 1529 1530 1530 1529 1529 1529 1528 1528 1527 1526 1525 1524 1524
1516 1514 1493 1489 1494 1502 1505 1517 1544 1557 1559 1549 1534 1536 1522 1506 1504 1506 1509 1511 1514 1516 1519 1520 1521 1523 1524 1526 1527 1528 1528 1528 1529 1529 1529 1529 1528 1528 1527 1526 1525 1524 1523 1523
1513 1511 1489 1485 1485 1491 1504 1513 1515 1535 1542 1551 1542 1529 1515 1506 1506 1507 1509 1511 1513 1515 1517 1519 1520 1521 1523 1525 1526 1527 1527 1528 1528 1528 1528 1528 1527 1527 1526 1525 1524 1523 1523 1522
1498 1508 1494 1486 1485 1488 1493 1502 1519 1534 1549 1556 1545 1536 1530 1516 1512 1509 1509 1510 1511 1513 1516 1518 1520 1521 1522 1523 1525 1526 1526 1527 1527 1527 1527 1526 1526 1526 1525 1524 1523 1522 1521 1520
1491 1507 1502 1494 1496 1499 1499 1505 1515 1529 1535 1552 1554 1542 1510 1509 1508 1508 1508 1509 1510 1513 1515 1517 1519 1520 1522 1523 1524 1525 1525 1525 1525 1525 1525 1525 1524 1524 1524 1523 1522 1521 1520 1519
1489 1504 1513 1502 1490 1486 1492 1500 1512 1529 1534 1537 1544 1536 1502 1503 1504 1505 1507 1509 1510 1512 1514 1516 1518 1519 1521 1521 1522 1523 1523 1523 1523 1523 1523 1523 1523 1523 1522 1521 1520 1520 1518 1517
1489 1505 1522 1519 1509 1497 1496 1496 1502 1513 1526 1535 1541 1530 1502 1502 1504 1504 1506 1508 1510 1511 1513 1515 1516 1517 1519 1520 1520 1521 1522 1522 1522 1522 1521 1521 1522 1521 1520 1520 1519 1518 1517 1516
1484 1502 1516 1524 1517 1504 1502 1498 1497 1509 1526 1530 1526 1518 1508 1504 1504 1504 1505 1507 1509 1510 1512 1513 1515 1516 1517 1518 1519 1520 1520 1520 1520 1520 1520 1520 1520 1519 1519 1518 1517 1516 1515 1514
1485 1501 1501 1501 1497 1495 1496 1497 1496 1502 1508 1517 1514 1511 1505 1501 1500 1501 1503 1506 1508 1510 1512 1513 1513 1514 1515 1516 1518 1518 1519 1519 1519 1519 1519 1518 1518 1517 1517 1516 1515 1514 1513 1512
1489 1499 1500 1501 1494 1494 1497 1494 1494 1496 1498 1502 1504 1505 1497 1498 1499 1501 1503 1505 1507 1509 1510 1512 1513 1514 1514 1515 1516 1517 1517 1518 1518 1518 1517 1516 1516 1515 1514 1513 1513 1512 1511 1510
1494 1499 1509 1513 1501 1499 1508 1497 1495 1496 1495 1498 1504 1501 1495 1498 1499 1500 1501 1503 1505 1507 1509 1510 1512 1513 1514 1514 1514 1515 1516 1517 1517 1516 1515 1515 1514 1513 1512 1511 1510 1509 1508 1507
1493 1501 1510 1515 1512 1523 1506 1487 1487 1491 1495 1493 1494 1494 1494 1495 1497 1499 1500 1502 1504 1506 1508 1510 1511 1512 1513 1514 1514 1514 1515 1515 1514 1514 1513 1513 1512 1511 1510 1509 1508 1507 1506 1504
1483 1495 1509 1519 1521 1515 1499 1488 1487 1493 1499 1494 1494 1494 1495 1496 1498 1501 1502 1502 1504 1505 1507 1509 1510 1511 1512 1512 1512 1513 1513 1513 1512 1512 1512 1511 1510 1509 1508 1507 1506 1505 1503 1502
1484 1489 1504 1513 1518 1521 1503 1486 1483 1489 1505 1495 1493 1494 1495 1495 1504 1504 1501 1502 1503 1505 1507 1508 1509 1510 1510 1510 1511 1511 1511 1511 1510 1510 1510 1509 1508 1507 1506 1505 1504 1502 1501 1499
1496 1499 1506 1512 1515 1508 1491 1485 1484 1504 1506 1495 1493 1493 1493 1494 1496 1498 1500 1502 1503 1504 1506 1507 1508 1509 1509 1510 1510 1509 1509 1509 1509 1508 1508 1507 1506 1505 1504 1503 1502 1500 1499 1497
1501 1506 1508 1511 1516 1511 1488 1486 1492 1494 1490 1492 1492 1493 1493 1494 1496 1498 1499 1501 1502 1503 1505 1506 1507 1508 1508 1508 1508 1508 1508 1508 1507 1506 1505 1504 1503 1503 1501 1500 1499 1497 1496 1494
1495 1497 1499 1502 1504 1493 1488 1487 1487 1486 1488 1490 1492 1493 1493 1495 1496 1498 1499 1500 1502 1503 1504 1505 1506 1507 1507 1507 1507 1506 1506 1506 1505 1504 1503 1502 1501 1500 1499 1497 1496 1494 1493 1491
1490 1488 1492 1496 1493 1490 1488 1487 1488 1488 1488 1489 1491 1493 1494 1495 1496 1498 1499 1500 1501 1503 1503 1504 1505 1505 1505 1506 1505 1505 1504 1504 1503 1501 1500 1499 1498 1497 1496 1494 1493 1491 1490 1488
1490 1489 1493 1495 1492 1490 1489 1488 1488 1489 1489 1489 1491 1492 1493 1494 1496 1497 1498 1499 1500 1501 1502 1503 1503 1503 1503 1503 1503 1502 1502 1501 1500 1499 1498 1497 1495 1494 1493 1492 1490 1488 1487 1485
1488 1489 1492 1494 1490 1491 1490 1489 1489 1490 1490 1490 1490 1492 1493 1494 1494 1496 1497 1498 1499 1500 1501 1501 1501 1501 1501 1501 1501 1500 1499 1498 1497 1496 1495 1493 1492 1491 1490 1489 1487 1486 1484 1483